This is the latest recevied weather packets stored in our database for station/object KD4MBW. If no packets are shown the sender has not sent any weather packets the latest 10 day(s).
| Time | Temp. | Humidity | Pressure | Rain* | Wind** | Luminosity | Snow |
|---|---|---|---|---|---|---|---|
| 1787508735 | 34.44° C | 58% | 1015.2 hPa | 0 mm | - | 231 W/m² | - |
| 1787508430 | 35.56° C | 56% | 1015.4 hPa | 0 mm | - | 793 W/m² | - |
| 1787508127 | 35.56° C | 54% | 1015.5 hPa | 0 mm | - | 168 W/m² | - |
| 1787507822 | 35.56° C | 54% | 1015.6 hPa | 0 mm | - | 772 W/m² | - |
| 1787507518 | 35.56° C | 57% | 1015.5 hPa | 0 mm | - | 765 W/m² | - |
| 1787507214 | 35° C | 59% | 1015.7 hPa | 0 mm | - | 752 W/m² | - |
| 1787506909 | 35° C | 55% | 1015.8 hPa | 0 mm | - | 768 W/m² | - |
| 1787506605 | 35° C | 57% | 1015.8 hPa | 0 mm | - | 786 W/m² | - |
| 1787506301 | 34.44° C | 60% | 1015.9 hPa | 0 mm | - | 830 W/m² | - |
| 1787505996 | 34.44° C | 61% | 1016 hPa | 0 mm | - | 649 W/m² | - |
| 1787505692 | 34.44° C | 58% | 1016 hPa | 0 mm | - | 613 W/m² | - |
| 1787505386 | 35° C | 58% | 1016.3 hPa | 0 mm | - | 812 W/m² | - |
| 1787505081 | 34.44° C | 58% | 1016 hPa | 0 mm | - | 513 W/m² | - |
| 1787504776 | 34.44° C | 61% | 1016.1 hPa | 0 mm | - | 611 W/m² | - |
| 1787504473 | 35° C | 60% | 1016 hPa | 0 mm | - | 775 W/m² | - |
| 1787504168 | 33.89° C | 59% | 1016 hPa | 0 mm | - | 778 W/m² | - |
| 1787503863 | 33.89° C | 60% | 1016.1 hPa | 0 mm | - | 745 W/m² | - |
| 1787503558 | 34.44° C | 63% | 1016.1 hPa | 0 mm | - | 738 W/m² | - |
| 1787503255 | 34.44° C | 60% | 1016.2 hPa | 0 mm | - | 730 W/m² | - |
| 1787502950 | 33.89° C | 58% | 1016.1 hPa | 0 mm | - | 724 W/m² | - |
| 1787502646 | 34.44° C | 63% | 1016.1 hPa | 0 mm | - | 718 W/m² | - |
| 1787502345 | 33.89° C | 65% | 1016.1 hPa | 0 mm | - | 702 W/m² | - |
| 1787502040 | 33.33° C | 67% | 1016.1 hPa | 0 mm | - | 700 W/m² | - |
| 1787501736 | 33.89° C | 68% | 1016.2 hPa | 0 mm | - | 698 W/m² | - |
| 1787501432 | 33.89° C | 68% | 1016.6 hPa | 0 mm | - | 689 W/m² | - |
* Rain latest hour (hover to see other rain measurements)
** Current wind speed in m/s (hover to see current wind gust speed)